Weather in Tsentora-Yurt

Russia / Chechen Republic     43°18′58″N   45°50′06″E
temp.,
°C
wind,
m/s
gust,
m/s
humid.,
%
clouds,
%
prec.,
mm/h
press.,
hPa
HPBL,
m
9 may, sun
sun900:00+14e00796 0.0 101126
03:00+13e118197 0.0 100927
06:00+14wsw0178100 0.0 100978
09:00+19nnw2260100 0.0 1008534
12:00+23nnw22494 0.0 10071218
15:00+24nw5547100 0.0 10061893
18:00+11w91589100 3.8 1014956
21:00+8w71490100 7.7 10201157
10 may, mon
mon1000:00+7w61189100 1.9 10221076
03:00+8wsw61083100 2.3 1023896
06:00+8wsw5976100 0.3 10231033
09:00+10sw4768100 1.8 10231143
12:00+13wnw464499 0.1 10211826
15:00+15nw333794 0.1 10192271
18:00+14sw234894 0.0 1019704
21:00+11ssw235991 0.0 1021161
11 may, tue
tue1100:00+10wsw1264100 0.0 1020263
03:00+9se126876 0.0 1020205
06:00+9ene236773 0.0 1020348
09:00+13ene345379 0.0 10191299
12:00+16e334793 0.0 10171493
15:00+18e434291 0.0 10161950
18:00+15ene575639 0.0 1017670
21:00+10e25725 0.0 1019229
12 may, wed
wed1200:00+9ne01796 0.0 101863
03:00+8ese018348 0.0 101829
06:00+9s01780 0.0 1018165
09:00+15ene23561 0.0 1017870
12:00+19ene33470 0.0 10161249
15:00+21ene43460 0.0 10151327
18:00+18ene44600 0.0 1016604
21:00+13ese13760 0.0 1017135
13 may, thu
thu1300:00+12ese11800 0.0 101619
03:00+11sw11830 0.0 101611
06:00+13sse00781 0.0 101788
09:00+19ene22565 0.0 1016552
12:00+24ene44490 0.0 1015930
15:00+25ene45460 0.0 10141143
18:00+21ene45580 0.0 1015532
21:00+16ene12760 0.0 101693